{"data":{"norad_id":65676,"intl_designator":"2025-212A","name":"STARLINK-35189","alt_names":[],"object_type":"PAYLOAD","status":"ACTIVE","operator":null,"country":"US","launch_date":"2025-09-21","launch_site_code":"AFETR","launch_vehicle":null,"mission":null,"orbit_class":"UNKNOWN","rcs_meters":null,"size_class":null,"mass_kg":null,"dimensions":null,"purposes":["comms"],"wikipedia_slug":null,"has_3d_model":false,"image_url":null,"decayed_at":null,"tle_current":{"epoch":"2026-09-20T23:18:15.444576Z","epoch_age_seconds":68411,"freshness":"FRESH","line1":"1 65676U 25212A   26263.97101209  .00020751  00000+0  67827-3 0  9997","line2":"2 65676  53.1589 157.7882 0001398  88.9809 271.1352 15.31715246 57103","mean_motion":15.31715246,"eccentricity":0.0001398,"inclination_deg":53.1589,"raan_deg":157.7882,"arg_perigee_deg":88.9809,"mean_anomaly_deg":271.1352,"bstar":0.00067827,"rev_number":5710,"period_min":94.012252196385,"perigee_km":469.73708141954,"apogee_km":471.65201472038,"semimajor_km":6848.83154807,"source":"CELESTRAK","updated_at":"2026-09-21T09:00:35.684344Z"}}}